Regional Weather Roundup
Issued by NWS

Home | Current Version | Previous Version | Text Only | Print | Product List | Glossary Off
Versions: 1 2 3 4 5 6 7 8 9 10 11 12 13 14 15 16 17 18 19 20 21 22 23 24 25 26 27 28 29 30 31 32 33 34 35 36 37 38 39 40 41 42 43 44 45 46 47 48 49 50

000
ASUS45 KBOU 290307
RWRCO

WEATHER ROUNDUP FOR COLORADO
NATIONAL WEATHER SERVICE DENVER/BOULDER CO
800 PM MST FRI NOV 28 2014

NOTE: "FAIR" INDICATES FEW OR NO CLOUDS BELOW 12000 FEET WITH NO
SIGNIFICANT WEATHER AND/OR OBSTRUCTIONS TO VISIBILITY.

COZ001>005-013-030-031-290400-
...NORTHWEST COLORADO...

CITY           SKY/WX    TMP DP  RH WIND       PRES   REMARKS
CRAIG          PTCLDY    38  19  46 VRB3      29.94F
HAYDEN         PTCLDY    36  18  48 E9        29.95F
MEEKER         PTCLDY    46  18  32 W12G18    29.98S
MOUNT WERNER   NOT AVBL
STEAMBOAT SPGS PTCLDY    29  23  79 CALM      29.97F
WALDEN         PTCLDY    34  12  40 SE6       29.98F WCI  29
$$

COZ006>008-011-290400-
...WEST CENTRAL VALLEYS...

CITY           SKY/WX    TMP DP  RH WIND       PRES   REMARKS
GRAND JUNCTION PTCLDY    35  23  61 E6        29.99F WCI  30
MONTROSE       MOCLDY    32  22  66 SE8       30.04F WCI  25
EAGLE          CLEAR     34  25  69 E9        30.03F WCI  26
RIFLE          CLEAR     33  25  72 CALM      30.01F
DELTA          MOCLDY    38  24  55 NE10      30.02F
NUCLA          MOCLDY    45  14  29 E5        30.07S
$$

COZ017>023-064>068-290400-
...SOUTHWEST COLORADO...

CITY           SKY/WX    TMP DP  RH WIND       PRES   REMARKS
DURANGO        CLEAR     31  16  54 CALM      30.11F
CORTEZ         CLEAR     28  16  60 E5        30.07F WCI  23
PAGOSA SPRINGS CLEAR     32  12  43 CALM      30.16F
TELLURIDE      CLEAR     39   8  28 SE8       30.19F
WOLF CREEK PAS CLEAR     28   9  43 MISG      30.25F
$$

COZ009-010-012-014-032>034-037-058>063-290400-
...CENTRAL COLORADO...

CITY           SKY/WX    TMP DP  RH WIND       PRES   REMARKS
ASPEN          PTCLDY    30  16  56 S6        30.05F WCI  24
BUENA VISTA    PTCLDY    44   6  21 W13       30.02F
COPPER MTN     PTCLDY    34  -2  21 SW16G25   30.18F WCI  23
BERTHOUD PASS  NOT AVBL
COTTONWOOD PAS PTCLDY    45  -4  13 W20G31    30.08S
GUNNISON       PTCLDY    21  14  73 CALM      30.14F
KREMMLING      CLEAR     37  16  41 CALM      30.01S
LEADVILLE      PTCLDY    30   5  34 NE7       30.10F WCI  23
MONARCH PASS   PTCLDY    30   5  34 W35G40    30.30F WCI  14
SALIDA         PTCLDY    48   5  17 SW9       30.09F
SUNLIGHT       PTCLDY    32  18  55 CALM      30.14F
WILKERSON PASS PTCLDY    32   0  25 SW12G24   30.12S WCI  23
$$

COZ069>075-290400-
...SAN LUIS VALLEY/SANGRE DE CRISTO MOUNTAINS...

CITY           SKY/WX    TMP DP  RH WIND       PRES   REMARKS
ALAMOSA        PTCLDY    35   7  31 SW10      30.08F WCI  27
LA VETA PASS   PTCLDY    37   9  30 S16G36    30.07F
SAGUACHE       PTCLDY    34  12  40 CALM      30.09S
$$

COZ035-036-038>040-290400-
...NORTHERN COLORADO FRONT RANGE...

CITY           SKY/WX    TMP DP  RH WIND       PRES   REMARKS
DENVER INTL AP CLOUDY    59   9  13 N6        29.80F
DMNS CITY PARK   N/A     62   7  11 W10G20    29.80S
AURORA         MOCLDY    55  10  16 SW3       29.83F
FRONT RANGE AP NOT AVBL
ERIE MUNI ARPT MOCLDY    58   7  13 NW3G14    29.78S
BOULDER MUN AP MOCLDY    61  12  15 NE8       29.77F
CENTENNIAL     MOCLDY    53  11  18 SW13      29.82F
BROOMFIELD     MOCLDY    55   9  15 W13G33    29.82F
FORT COLLINS   CLOUDY    61  14  16 NW16      29.79F
LONGMONT       CLOUDY    62  10  13 W12G17    29.79S
$$

COZ041-046-047-076>085-087-088-290400-
...PIKES PEAK/PALMER DIVIDE AND SOUTHERN FOOTHILLS...

CITY           SKY/WX    TMP DP  RH WIND       PRES   REMARKS
COLO. SPRINGS  MOCLDY    59   2  10 NW8G18    29.87F
A. F. ACADEMY  MOCLDY    53   5  14 VRB7      29.89F
ELLICOTT       NOT AVBL
FALCON         NOT AVBL
FORT CARSON    MOCLDY    58   4  11 SW14      29.83F
LIMON          CLOUDY    32  17  54 N8        29.83S WCI  25
MONUMENT HILL  MOCLDY    43  10  26 SW12      29.89F
TRINIDAD       CLOUDY    44  21  40 W10       29.90F
$$

COZ042>045-048>051-090-091-290400-
...NORTHEAST COLORADO...

CITY           SKY/WX    TMP DP  RH WIND       PRES   REMARKS
GREELEY ARPT   CLOUDY    48  21  34 CALM      29.78F
AKRON          CLOUDY    53  13  20 S6        29.77F
BURLINGTON     CLOUDY    49  13  23 W6        29.75F
WRAY           MOCLDY    47  20  34 W3        29.74F
STERLING       CLOUDY    34  30  86 CALM      29.75F
HOLYOKE        MOCLDY    37  28  70 W8        29.74F
FORT MORGAN    CLOUDY    47  17  29 W7        29.77F
$$

COZ086-089-092>099-290400-
...SOUTHEAST COLORADO...

CITY           SKY/WX    TMP DP  RH WIND       PRES   REMARKS
PUEBLO         MOCLDY    50  17  27 S5        29.83S
LA JUNTA       CLOUDY    50  18  28 W15       29.79F
LAMAR          CLOUDY    42  21  43 W6        29.76F
SPRINGFIELD      N/A     50  12  21 W6        29.81F
$$



USA.gov is the U.S. government's official web portal to all federal, state and local government web resources and services.